This is the latest recevied weather packets stored in our database for station/object PA3BWK. If no packets are shown the sender has not sent any weather packets the latest 10 day(s).
| Time | Temp. | Humidity | Pressure | Rain* | Wind** | Luminosity | Snow |
|---|---|---|---|---|---|---|---|
| 1777543533 | 16.67° C | 28% | 1028.6 hPa | 0 mm | - | 753 W/m² | - |
| 1777543472 | 16.67° C | 29% | 1028.6 hPa | 0 mm | - | 753 W/m² | - |
| 1777543412 | 16.67° C | 30% | 1028.6 hPa | 0 mm | - | 749 W/m² | - |
| 1777543352 | 16.67° C | 30% | 1028.7 hPa | 0 mm | - | 747 W/m² | - |
| 1777543292 | 16.67° C | 30% | 1028.5 hPa | 0 mm | - | 749 W/m² | - |
| 1777543231 | 16.67° C | 31% | 1028.7 hPa | 0 mm | - | 747 W/m² | - |
| 1777543168 | 16.67° C | 31% | 1028.7 hPa | 0 mm | - | 747 W/m² | - |
| 1777543107 | 16.67° C | 31% | 1028.6 hPa | 0 mm | - | 744 W/m² | - |
| 1777543048 | 16.67° C | 29% | 1028.6 hPa | 0 mm | - | 742 W/m² | - |
| 1777542987 | 16.67° C | 29% | 1028.7 hPa | 0 mm | - | 742 W/m² | - |
| 1777542927 | 16.67° C | 28% | 1028.7 hPa | 0 mm | - | 740 W/m² | - |
| 1777542870 | 16.67° C | 28% | 1028.7 hPa | 0 mm | - | 739 W/m² | - |
| 1777542807 | 16.67° C | 28% | 1028.7 hPa | 0 mm | - | 740 W/m² | - |
| 1777542746 | 16.67° C | 28% | 1028.7 hPa | 0 mm | - | 739 W/m² | - |
| 1777542687 | 16.67° C | 29% | 1028.6 hPa | 0 mm | - | 737 W/m² | - |
| 1777542633 | 16.67° C | 29% | 1028.8 hPa | 0 mm | - | 735 W/m² | - |
| 1777542568 | 16.67° C | 29% | 1028.7 hPa | 0 mm | - | 735 W/m² | - |
| 1777542507 | 16.67° C | 31% | 1028.8 hPa | 0 mm | - | 732 W/m² | - |
| 1777542447 | 16.11° C | 29% | 1028.8 hPa | 0 mm | - | 730 W/m² | - |
| 1777542386 | 16.11° C | 29% | 1028.7 hPa | 0 mm | - | 732 W/m² | - |
| 1777542326 | 16.11° C | 30% | 1028.8 hPa | 0 mm | - | 730 W/m² | - |
| 1777542269 | 16.11° C | 29% | 1028.8 hPa | 0 mm | - | 725 W/m² | - |
| 1777542208 | 16.11° C | 30% | 1028.8 hPa | 0 mm | - | 726 W/m² | - |
| 1777542146 | 16.11° C | 29% | 1028.8 hPa | 0 mm | - | 725 W/m² | - |
| 1777542087 | 16.11° C | 29% | 1028.8 hPa | 0 mm | - | 723 W/m² | - |
* Rain latest hour (hover to see other rain measurements)
** Current wind speed in m/s (hover to see current wind gust speed)